Wind_Speed
7 7 7 6 8 6 7 7 8 7 11 3 8 11 14 19 20 21 20 19 21 20 20 20 20 21 20 18 18 18 19 19 18 18 17 16 15 15
7 6 6 6 8 6 7 6 7 10 11 11 16 16 16 19 20 19 20 22 21 22 20 20 21 22 21 20 19 18 19 19 19 18 17 14 13 12
5 6 6 7 7 6 6 7 8 10 16 18 18 15 17 17 20 19 20 19 20 20 22 22 22 22 22 21 21 19 17 17 17 17 16 12 7 5
4 5 5 7 6 6 6 6 8 10 13 17 18 21 19 16 17 19 20 18 18 19 21 20 21 22 22 21 20 19 17 15 15 15 15 12 5 5
4 5 6 6 5 6 7 7 8 11 12 15 17 18 18 17 20 20 17 18 19 17 21 22 21 20 19 18 17 17 17 18 17 17 15 13 10 10
4 4 5 5 5 6 6 6 7 9 9 11 14 15 14 14 13 16 21 19 21 22 18 19 20 19 20 20 20 20 21 21 20 18 18 16 13 11
4 4 4 4 5 5 6 7 8 9 10 14 15 18 18 20 20 21 22 24 26 16 20 21 24 23 22 21 23 21 21 20 21 21 20 19 17 14
3 4 4 5 6 7 7 9 10 11 12 15 15 14 16 17 19 22 24 25 28 22 31 30 26 25 21 20 19 22 22 22 21 21 21 21 19 17
3 4 4 5 6 7 8 9 11 12 14 15 16 17 21 21 24 26 25 24 26 28 28 33 30 27 23 16 18 20 20 22 22 21 21 22 21 20
4 4 4 5 6 8 9 10 11 12 13 14 16 18 21 23 25 26 27 26 25 24 20 28 30 26 24 22 19 18 16 17 18 19 20 22 22 21
4 4 5 6 8 10 12 14 15 15 17 18 18 18 20 22 25 26 27 23 28 29 26 18 22 27 29 28 21 16 15 14 17 18 19 19 21 21
5 6 6 8 9 11 13 15 17 18 21 23 23 24 24 22 22 24 25 27 28 25 24 23 24 23 22 23 10 16 27 24 19 17 17 16 19 21
7 7 8 9 10 12 14 15 18 21 23 25 26 27 28 28 28 27 25 24 26 27 28 26 26 25 27 32 33 31 27 20 19 19 17 16 18 19
10 10 10 11 12 14 16 18 20 23 25 27 27 28 29 29 30 31 31 30 27 26 24 25 28 28 30 34 35 34 33 25 22 22 21 20 19 19
12 12 13 14 15 17 19 20 22 24 27 30 31 32 31 31 31 31 32 32 32 32 30 25 24 27 28 33 36 35 33 32 27 25 23 23 23 22
14 15 17 18 18 20 21 22 23 25 27 30 32 34 33 32 32 30 30 30 32 33 31 28 25 23 27 31 32 35 33 31 28 26 25 23 22 21
17 18 19 21 22 23 24 26 27 28 29 30 33 33 31 30 30 28 27 27 29 31 32 29 24 25 27 26 33 35 32 33 30 28 26 28 25 23
19 21 22 23 25 26 27 28 29 29 30 32 32 31 30 28 26 25 25 25 28 30 30 29 27 26 28 30 26 27 23 25 25 27 26 27 28 23
22 23 25 26 28 28 29 30 32 33 32 31 31 28 27 29 28 30 29 27 26 26 29 28 27 25 27 31 29 23 24 25 23 24 24 24 24 24
23 25 27 28 29 30 31 32 33 33 29 28 25 26 27 28 30 30 27 26 27 28 29 28 28 28 27 29 30 32 24 26 26 27 23 22 20 20
24 27 29 30 30 31 32 32 31 28 27 25 26 27 29 31 31 30 26 25 25 27 28 29 30 27 28 29 33 35 33 28 24 22 23 25 25 21
25 28 29 30 31 31 31 28 26 27 28 28 30 30 32 29 28 27 26 28 29 25 33 39 35 33 30 31 32 32 29 26 22 24 22 22 23 19
26 27 28 29 28 27 24 24 25 28 30 31 33 34 28 27 27 28 27 32 36 35 33 37 34 27 31 30 28 28 26 27 26 25 22 20 21 21
Wind_Direction
282 282 284 282 286 291 284 294 294 316 321 283 334 319 315 311 307 317 323 322 324 323 323 324 324 325 327 328 328 325 322 321 322 323 323 320 327 322
280 279 280 284 286 288 290 287 279 276 283 296 298 307 314 311 320 319 318 320 322 322 323 321 319 319 318 320 322 322 321 320 320 321 326 331 337 358
294 288 287 286 288 288 290 292 288 287 290 296 305 312 306 312 312 314 317 320 319 318 319 319 318 316 315 314 315 317 317 317 315 318 322 331 340 6
287 290 294 297 302 297 290 298 295 295 293 301 306 315 319 323 320 318 319 321 315 319 315 315 315 314 312 310 310 312 312 313 308 311 315 319 296 259
309 304 303 306 300 290 306 302 305 302 306 304 314 332 333 323 321 329 338 321 317 313 316 318 317 314 314 315 314 311 308 308 308 304 305 304 294 255
298 297 304 311 318 323 327 320 316 319 318 309 311 321 320 327 325 320 323 330 321 323 318 320 317 316 313 307 305 304 304 304 301 297 296 294 289 272
298 310 321 324 332 340 344 340 340 338 332 326 333 332 337 339 338 337 334 331 329 344 320 317 318 321 312 309 307 303 300 299 296 293 290 288 286 279
289 298 310 322 326 326 328 328 328 329 328 324 327 328 329 327 322 323 323 325 327 325 325 323 331 329 328 321 307 299 298 296 294 288 284 284 280 279
264 275 293 309 316 326 333 336 336 337 331 331 330 322 320 321 319 320 318 314 311 313 317 315 323 323 327 330 319 312 306 301 291 283 280 280 275 275
268 278 289 311 326 331 333 334 334 332 328 326 324 323 322 324 322 322 320 316 309 311 314 306 315 318 319 319 323 318 312 315 311 289 281 279 276 271
272 292 307 319 327 328 329 331 333 332 328 328 326 323 321 320 319 318 319 316 314 313 319 306 314 313 312 313 319 302 296 312 320 321 293 282 283 273
265 279 292 306 313 321 326 329 329 329 328 328 328 329 327 326 321 319 318 315 315 316 313 305 302 310 313 316 298 295 304 310 304 306 314 287 277 284
255 268 283 298 308 314 319 323 323 321 321 320 321 321 321 320 320 317 312 309 308 304 314 305 302 297 289 293 299 304 307 310 300 299 302 304 281 277
254 269 283 295 304 310 315 318 317 315 315 314 314 313 313 311 310 310 310 309 305 303 307 304 293 289 289 289 290 293 296 299 291 289 287 284 287 286
263 274 284 292 299 304 309 313 314 313 313 310 310 309 308 306 303 302 301 302 304 305 306 307 299 291 285 284 285 288 291 291 289 280 278 277 277 276
266 275 284 291 296 301 304 306 308 309 309 308 309 308 306 304 302 303 301 300 298 298 299 305 306 304 297 291 293 282 281 283 283 280 276 271 267 269
268 275 282 290 297 301 303 306 309 310 309 308 306 303 301 299 298 300 297 297 293 296 298 302 304 304 298 296 294 296 277 276 278 280 273 268 265 262
269 278 286 290 294 298 299 302 303 303 302 302 303 298 293 292 295 298 296 293 294 294 296 300 305 306 304 297 295 302 287 281 283 280 272 271 270 265
271 280 285 289 291 293 296 298 300 301 302 302 303 300 297 300 303 300 295 296 299 293 291 295 297 303 302 294 299 300 295 287 285 279 275 272 270 267
276 281 285 288 290 292 295 296 297 297 297 300 293 292 295 299 301 300 296 294 293 295 296 294 294 296 297 297 301 297 287 287 275 281 279 281 276 270
281 284 287 288 290 292 293 294 293 291 294 290 293 297 298 300 299 302 295 287 284 289 291 295 296 296 292 294 292 294 292 283 280 277 275 270 270 267
284 285 286 286 287 289 290 290 287 287 291 294 296 297 297 296 295 299 299 293 283 283 294 298 294 290 288 290 290 295 296 288 288 272 266 266 260 258
287 288 288 285 285 285 285 285 284 286 290 292 291 298 296 295 297 297 295 288 294 297 297 296 298 290 285 289 284 294 294 286 281 277 271 270 259 253
Height
1524 1523 1524 1525 1525 1523 1524 1523 1522 1522 1520 1519 1519 1517 1515 1513 1510 1507 1504 1502 1500 1498 1496 1494 1493 1491 1489 1486 1484 1481 1478 1475 1472 1470 1468 1466 1464 1461
1522 1522 1522 1523 1523 1522 1521 1521 1521 1520 1519 1517 1515 1514 1513 1510 1508 1505 1502 1500 1497 1495 1493 1491 1490 1488 1486 1484 1482 1479 1477 1474 1471 1469 1467 1465 1463 1461
1520 1521 1520 1520 1521 1520 1519 1518 1518 1518 1516 1514 1512 1511 1510 1507 1504 1502 1499 1497 1495 1493 1490 1489 1487 1485 1483 1481 1479 1477 1474 1472 1469 1467 1465 1464 1463 1462
1517 1519 1518 1518 1518 1518 1516 1516 1515 1515 1514 1511 1510 1507 1506 1503 1501 1498 1496 1494 1492 1490 1488 1486 1483 1481 1480 1478 1476 1474 1472 1470 1467 1465 1463 1463 1462 1462
1516 1517 1516 1516 1515 1514 1513 1513 1512 1511 1510 1508 1506 1504 1503 1502 1499 1497 1494 1491 1490 1487 1485 1482 1480 1478 1476 1475 1473 1472 1469 1467 1466 1463 1461 1460 1459 1459
1514 1514 1514 1513 1513 1512 1511 1510 1510 1509 1509 1507 1505 1503 1501 1498 1496 1493 1491 1489 1486 1484 1481 1479 1476 1475 1473 1471 1470 1469 1467 1465 1462 1461 1459 1457 1456 1455
1512 1512 1512 1512 1511 1510 1509 1509 1508 1507 1506 1504 1502 1500 1498 1496 1493 1490 1487 1484 1482 1481 1479 1476 1473 1470 1468 1466 1465 1464 1462 1461 1459 1457 1456 1454 1454 1452
1510 1510 1510 1509 1509 1508 1507 1507 1506 1505 1504 1502 1500 1498 1498 1496 1493 1490 1487 1483 1478 1478 1474 1471 1469 1466 1464 1462 1460 1458 1457 1456 1454 1453 1451 1451 1450 1449
1508 1508 1508 1508 1507 1507 1506 1505 1503 1502 1502 1499 1497 1498 1495 1492 1490 1487 1484 1481 1478 1474 1471 1465 1465 1462 1460 1458 1456 1454 1452 1450 1448 1448 1447 1446 1445 1445
1505 1506 1506 1506 1505 1504 1503 1503 1501 1500 1499 1498 1495 1494 1492 1490 1487 1484 1480 1476 1473 1471 1470 1463 1461 1458 1455 1454 1452 1450 1448 1446 1444 1443 1443 1442 1441 1441
1503 1503 1503 1502 1503 1502 1501 1500 1498 1497 1496 1494 1492 1490 1489 1487 1484 1481 1478 1473 1469 1466 1464 1459 1457 1454 1451 1448 1448 1446 1445 1444 1442 1440 1439 1439 1438 1437
1500 1500 1501 1500 1499 1498 1497 1496 1495 1494 1491 1489 1487 1485 1485 1483 1482 1480 1477 1474 1469 1462 1462 1457 1454 1453 1446 1444 1444 1443 1442 1440 1438 1437 1436 1436 1436 1434
1497 1497 1497 1497 1496 1495 1494 1492 1491 1490 1488 1486 1484 1482 1480 1478 1475 1473 1472 1468 1466 1462 1461 1456 1451 1448 1445 1439 1437 1436 1436 1436 1435 1433 1432 1432 1432 1431
1492 1492 1492 1492 1492 1491 1489 1488 1486 1484 1482 1480 1478 1476 1474 1473 1471 1468 1467 1464 1460 1455 1454 1452 1447 1445 1441 1435 1430 1429 1429 1431 1430 1429 1428 1427 1427 1427
1488 1488 1488 1487 1486 1485 1484 1483 1482 1480 1477 1475 1471 1468 1467 1465 1462 1461 1457 1456 1454 1451 1447 1445 1441 1437 1434 1430 1426 1424 1421 1420 1423 1423 1422 1421 1421 1421
1483 1483 1483 1483 1482 1480 1479 1478 1476 1474 1472 1469 1466 1463 1459 1457 1454 1453 1448 1446 1443 1441 1442 1439 1434 1431 1427 1424 1421 1416 1417 1415 1413 1415 1415 1414 1414 1414
1478 1477 1477 1476 1475 1474 1472 1470 1469 1468 1466 1463 1459 1455 1454 1450 1446 1445 1442 1438 1435 1432 1431 1430 1429 1425 1421 1418 1413 1410 1408 1407 1407 1406 1406 1406 1406 1407
1471 1470 1470 1469 1468 1467 1466 1464 1462 1460 1458 1456 1452 1448 1445 1443 1440 1438 1436 1433 1428 1425 1424 1423 1421 1417 1413 1408 1408 1404 1401 1399 1400 1399 1398 1397 1398 1399
1464 1463 1463 1463 1461 1460 1458 1457 1454 1453 1451 1448 1445 1441 1439 1435 1433 1430 1428 1424 1421 1419 1417 1417 1415 1412 1407 1401 1400 1401 1397 1394 1393 1391 1391 1390 1390 1392
1457 1457 1456 1455 1453 1452 1449 1448 1446 1445 1443 1442 1439 1436 1433 1429 1425 1423 1420 1417 1415 1412 1410 1409 1407 1406 1403 1398 1393 1391 1391 1389 1388 1385 1384 1385 1385 1385
1450 1450 1448 1446 1445 1444 1442 1440 1438 1437 1436 1434 1432 1429 1426 1423 1418 1415 1412 1410 1408 1406 1403 1401 1400 1399 1396 1392 1387 1382 1381 1381 1380 1379 1379 1378 1379 1378
1444 1442 1441 1439 1436 1435 1434 1432 1431 1430 1429 1427 1424 1422 1418 1415 1411 1408 1405 1402 1400 1398 1395 1393 1391 1389 1387 1385 1381 1377 1373 1373 1373 1373 1372 1373 1373 1372
1435 1433 1431 1430 1428 1427 1426 1425 1424 1422 1421 1419 1416 1412 1409 1406 1403 1401 1398 1396 1394 1391 1388 1384 1381 1380 1378 1376 1374 1372 1369 1367 1366 1365 1365 1366 1367 1368